Zurück zum Katalog

STARLINK-32004

AktivKommunikationVLEO
NORAD 60151·PAYLOAD·🇺🇸 United States

Gestartet Jun 27, 2024 von Cape Canaveral Space Force Station

Loading…

Nächste Überflüge (nächste 24 Stunden)

TLE

AktuellSource: CelesTrak SupGP

Epoche: Sep 14, 2026, 22:50 UTC

1 60151C 24120S   26257.95187500 -.00069336  00000+0 -20482-2 0  2572
2 60151  53.1566 157.8097 0001239  79.6543 348.3719 15.34429886    13

Verfolge STARLINK-32004 in Echtzeit mit AllMySat

Download on the App Store